Location: Peterborough
(44.3091°N, 78.3197°W)
Time: 18:17:12
(UTC-04:00)

Vanguard 2 Rocket - Pass Details

Date: 23 March 2023
Orbit: 554 x 3314 km, 32.9° (Epoch: 05 June)

Event Time Altitude Azimuth Distance (km) Brightness Sun altitude
Rises 20:16:48 0° 216° (SW) 3,583 10.3 -9.3°
Reaches altitude 10° 20:19:22 10° 203° (SSW) 2,922 9.7 -9.7°
Maximum altitude 20:25:24 27° 148° (SSE) 2,516 8.8 -10.8°
Enters shadow 20:32:44 14° 102° (ESE) 4,085 9.5 -12.0°
